Location: Alpelti
(47.1280°N, 9.5584°E)
Time: 19:34:04
(UTC+00:00)

Daily predictions for brighter satellites

Satellite Brightness Start Highest point End
(mag) Time Altitude Azimuth Time Altitude Azimuth Time Altitude Azimuth
FALCON 9 DEB 3.2 19:57:19 10° WSW 20:00:45 85° NNW 20:04:11 10° ENE
Cosmos 1455 Rocket 3.3 19:57:43 10° N 20:02:09 60° ENE 20:06:33 10° SSE
Okean 1 Rocket 4.2 19:58:49 10° NNW 20:02:59 44° W 20:07:09 10° SSW
Cosmos 2100 Rocket 4.2 19:57:12 10° N 20:03:31 62° ENE 20:09:45 10° SSE
USA 81 4.2 19:59:09 10° N 20:04:28 86° W 20:09:44 10° S
ERS-2 3.9 20:01:52 10° N 20:05:15 35° WNW 20:08:36 10° SW
ARIANE 5 R/B 3.5 20:01:35 10° SE 20:05:41 38° ENE 20:09:51 10° N
Meteor 2-20 Rocket 4.5 19:59:50 10° S 20:05:57 80° E 20:12:03 10° NNE
Cosmos 1315 Rocket 4.2 20:02:22 10° NNW 20:06:14 39° W 20:10:04 10° SSW
BREEZE-M DEB (TANK) 2.6 20:04:35 10° SW 20:06:53 45° SE 20:10:58 10° ENE
ATLAS 3B R/B 3.1 20:01:03 10° S 20:07:01 39° ESE 20:13:09 10° NE
Cosmos 1707 3.6 20:03:48 10° SSW 20:07:37 54° WNW 20:11:28 10° N
IGS 5A 3.8 20:04:44 10° S 20:08:52 69° W 20:13:03 10° NNW
Cosmos 1461 3.1 20:07:00 10° NW 20:11:11 64° WSW 20:15:09 10° SSE
ATLAS CENTAUR R/B 1.9 20:09:33 10° NNW 20:13:50 59° NE 20:18:21 10° SE
Cosmos 2173 Rocket 4.1 20:10:09 10° N 20:16:33 72° E 20:22:54 10° SSE
Cosmos 405 4.2 20:13:59 10° N 20:17:00 27° ENE 20:19:49 11° SE
SL-8 R/B 4.0 20:13:07 10° WNW 20:17:48 54° SSW 20:22:21 11° SE
Cosmos 1452 Rocket 4.1 20:14:22 10° SW 20:19:36 62° WNW 20:24:51 10° NNE
Cosmos 2016 Rocket 4.3 20:14:29 10° N 20:20:26 51° ENE 20:26:21 10° SSE
SL-4 R/B 3.6 20:18:24 10° S 20:20:49 15° SE 20:23:08 10° E
Cosmos 2219 Rocket 2.8 20:17:53 10° S 20:23:03 37° ESE 20:28:13 10° NE
Cosmos 2333 Rocket 2.6 20:18:55 10° S 20:24:19 44° ESE 20:29:44 10° NE
FALCON 9 DEB 3.3 20:23:19 10° SW 20:26:16 40° SE 20:29:14 10° ENE
ERS-1 Rocket 3.4 20:24:08 11° SE 20:28:50 51° ENE 20:33:43 10° N
Cosmos 1025 Rocket 3.1 20:24:50 10° S 20:29:09 62° E 20:33:28 10° NNE
Geosat 4.4 20:24:37 11° SE 20:29:22 55° NE 20:34:18 10° NNW
Lacrosse 5 rocket 1.0 20:26:16 10° SW 20:29:58 88° NW 20:33:35 10° NE
OPS 8737 4.5 20:26:23 10° SSW 20:30:29 62° SE 20:33:37 10° NE
Cosmos 1844 3.8 20:25:05 10° NNW 20:30:41 81° WSW 20:36:02 11° SSE
Cosmos 1536 Rocket 4.3 20:28:12 11° SSE 20:32:10 37° E 20:36:16 10° NNE
Spot 2 Rocket 3.5 20:28:32 10° SSE 20:33:35 80° ENE 20:38:42 10° NNW
Cosmos 1725 Rocket 4.2 20:28:47 10° N 20:34:53 57° ENE 20:40:28 12° SSE
Cosmos 1331 Rocket 4.0 20:31:23 10° SSW 20:36:39 89° E 20:41:58 10° NNE
Cosmos 1900 4.5 20:34:47 10° NW 20:39:40 69° WSW 20:43:50 14° SSE
DNEPR-1 R/B 3.5 20:35:43 10° NW 20:39:58 82° NE 20:43:36 15° SE
FALCON 9 DEB 2.7 20:38:47 10° SW 20:41:52 75° SSE 20:44:58 10° ENE
CENTAUR R/B 4.5 20:38:04 10° W 20:43:51 36° NNW 20:50:39 10° NE
CARTOSAT-1 3.6 20:40:17 12° SSE 20:44:18 87° WSW 20:48:39 10° NNW
Cosmos 2237 Rocket 3.8 20:41:59 13° SE 20:44:29 17° E 20:47:58 10° ENE
Terra 2.3 20:41:19 14° SE 20:45:10 49° ENE 20:49:46 10° N
SL-14 R/B 3.4 20:41:31 11° S 20:45:23 60° E 20:49:21 10° NNE
SPOT 1/Viking Rocket 4.0 20:41:16 10° S 20:46:18 58° W 20:51:24 10° NNW
Cosmos 2360 Rocket 2.7 20:41:42 10° SW 20:47:18 63° WNW 20:52:55 10° NNE
Cosmos 1674 3.8 20:43:56 10° SSW 20:47:29 43° WNW 20:51:03 10° N
CZ-2C R/B 4.3 20:43:16 10° N 20:48:01 65° WNW 20:52:44 10° SSW
FALCON 9 DEB 2.7 20:46:44 10° SW 20:49:49 69° SSE 20:52:56 10° ENE
Cosmos 1953 3.5 20:47:47 10° NNW 20:51:37 40° W 20:55:25 10° SSW
Cosmos 2322 Rocket 3.8 20:46:21 10° WSW 20:51:39 38° NW 20:56:58 10° NNE
SL-16 R/B 4.2 20:46:50 10° WSW 20:51:51 31° NW 20:56:53 10° NNE
FALCON 9 DEB 2.7 20:49:19 10° WSW 20:52:25 85° SSE 20:55:32 10° ENE
SPOT 5 2.9 20:48:16 14° SSE 20:52:39 80° ENE 20:57:31 10° NNW
Cosmos 1455 4.4 20:50:53 10° NNE 20:52:58 14° ENE 20:55:03 10° E
Cosmos 1975 Rocket 4.4 20:50:39 10° SW 20:54:45 39° WNW 20:58:55 10° N
Meteor 1-24 Rocket 4.0 20:51:25 14° SSE 20:55:41 46° E 21:00:56 10° NNE
Cosmos 1802 Rocket 4.2 20:49:24 10° NNW 20:55:41 77° W 21:01:56 10° S
Cosmos 1459 Rocket 4.4 20:51:07 10° NNW 20:57:05 61° W 21:03:02 10° S
H-2A R/B 4.2 20:53:43 10° NNE 20:57:29 35° E 20:59:52 19° SSE
Cosmos 1302 Rocket 4.0 20:52:45 10° SSW 20:57:59 72° ESE 21:03:13 10° NNE
Cosmos 1300 2.6 20:59:56 10° N 21:03:46 83° E 21:06:20 20° SSE
Resurs 01 Rocket 3.9 21:02:32 10° SW 21:05:41 19° W 21:08:50 10° NW
USA 267 4.4 21:05:03 10° E 21:11:06 42° NNE 21:17:10 10° NW
Cosmos 1340 3.0 21:07:36 10° SSW 21:11:20 64° WNW 21:15:06 10° N
Cosmos 2322 3.8 21:09:16 10° SSW 21:14:55 79° WNW 21:20:37 10° NNE
COSMOS 2428 2.7 21:10:52 10° SSW 21:16:35 77° ESE 21:22:21 10° NNE
Cosmos 2278 Rocket 2.6 21:11:18 10° NNW 21:16:53 54° ENE 21:20:55 19° SE
Cosmos 1844 Rocket 4.1 21:12:42 10° NW 21:17:35 30° WSW 21:22:26 10° SSW
NOSS 0 Rocket 4.3 21:17:59 16° S 21:22:40 46° ESE 21:28:35 10° NE
Cosmos 389 Rocket 2.8 21:19:29 10° N 21:22:50 50° ENE 21:24:17 29° SE
Cosmos 1726 Rocket 4.3 21:20:20 10° N 21:24:35 40° ENE 21:26:53 23° SE
Cosmos 2058 Rocket 4.5 21:21:07 10° NNE 21:24:53 26° ENE 21:27:08 18° ESE
Cosmos 1867 3.6 21:19:49 10° NW 21:25:21 87° SW 21:28:54 23° SSE
Cosmos 968 Rocket 3.6 21:25:09 10° NNW 21:30:15 71° WSW 21:33:29 23° S
Cosmos 1626 4.4 21:31:29 10° SW 21:34:27 23° WNW 21:37:28 10° NNW
Cosmos 1486 Rocket 4.0 21:30:32 10° NNW 21:35:46 83° WSW 21:38:52 25° SSE
SJ 16-02 3.8 21:34:46 10° NNE 21:37:03 14° NE 21:39:20 10° E
Meteor 2-10 Rocket 3.4 21:34:33 10° NNW 21:39:39 86° WSW 21:42:36 25° S
Cosmos 1606 Rocket 3.6 21:35:48 10° N 21:40:18 74° E 21:42:32 29° SSE
Cosmos 2233 Rocket 4.1 21:35:02 10° NNW 21:41:10 73° W 21:45:35 20° S
Uosat 12 SS-18 rocket 4.3 21:36:59 10° SW 21:41:22 77° NW 21:46:30 10° NE
Cosmos 1992 Rocket 3.9 21:37:59 18° S 21:41:50 73° ESE 21:47:04 10° NNE
Cosmos 1943 Rocket 4.1 21:37:57 10° N 21:42:11 22° NE 21:46:25 10° E
ARIANE 5 R/B 4.4 21:38:34 10° SSW 21:42:14 25° W 21:45:59 10° NW
Cosmos 1892 Rocket 4.0 21:43:59 29° SSE 21:45:50 47° E 21:50:07 10° NNE
Cosmos 1346 Rocket 2.8 21:47:04 25° SSW 21:49:19 81° W 21:53:23 10° N
Cosmos 1447 Rocket 4.5 21:44:53 19° S 21:49:35 89° W 21:55:48 10° N
Cosmos 1354 Rocket 4.1 21:46:43 10° NNW 21:52:04 70° ENE 21:55:00 27° SE
ATLAS CENTAUR R/B 3.4 21:49:08 10° WNW 21:52:25 20° WSW 21:54:30 15° SSW
Cosmos 1980 3.7 21:51:14 22° S 21:54:55 64° ESE 22:00:33 10° NNE
Cosmos 1441 Rocket 4.2 21:54:42 27° ESE 21:55:29 30° E 21:58:50 10° NNE
BREEZE-M DEB (TANK) 3.4 21:45:35 10° SW 21:56:27 52° SSE 21:59:51 10° E
ATLAS 3B R/B 3.4 21:51:06 10° WSW 21:57:31 54° NW 22:04:12 10° NE
SL-4 R/B 1.8 21:55:49 10° SW 21:59:55 67° SSE 22:03:43 10° ENE
ALOS 2 3.8 21:57:53 21° ESE 22:00:01 31° ENE 22:03:54 10° N
FALCON 9 DEB 4.3 21:59:00 10° W 22:01:59 41° NNW 22:05:00 10° NE
Cosmos 2219 Rocket 3.5 22:01:37 10° WSW 22:06:57 40° NW 22:12:19 10° NNE
Cosmos 2333 Rocket 3.8 22:03:28 10° WSW 22:08:42 35° NW 22:13:57 10° NNE
Cosmos 1607 4.0 22:02:54 10° NW 22:09:20 79° WSW 22:12:53 28° SSE
Lacrosse 5 rocket 3.6 22:06:30 10° WNW 22:09:27 23° NNW 22:12:24 10° NE
Cosmos 1703 3.8 22:08:43 36° SE 22:09:42 44° E 22:13:28 10° NNE
Cosmos 2228 3.9 22:07:45 10° NNW 22:11:56 43° W 22:14:06 24° SSW
Iridium 2 3.7 22:12:19 37° SSW 22:13:40 73° W 22:17:25 10° N
Meteor 2-1 Rocket 4.2 22:13:58 10° N 22:19:31 81° ENE 22:22:14 32° SSE
USA 215 3.3 22:13:04 10° ENE 22:19:31 58° SE 22:25:28 12° SW
Terra 3.7 22:20:12 13° SW 22:23:11 21° W 22:26:50 10° NW
COBE Rocket 4.0 22:22:10 33° SSE 22:24:25 71° ENE 22:29:19 10° N
SL-16 R/B 2.9 22:23:55 30° SE 22:25:48 38° ESE 22:31:00 10° NE
Cosmos 2237 Rocket 2.2 22:23:44 19° SSW 22:27:49 80° WNW 22:33:29 10° NNE
Cosmos 1455 2.7 22:25:11 10° NNW 22:28:54 49° W 22:29:59 36° SW
Cosmos 1184 Rocket 3.0 22:29:49 49° SW 22:30:27 63° WNW 22:33:40 10° N
Cosmos 1464 Rocket 4.0 22:24:36 10° N 22:31:00 81° W 22:34:26 30° S
Cosmos 1328 4.1 22:31:00 42° SE 22:31:45 48° E 22:35:32 10° NNE
Cosmos 2369 Rocket 3.8 22:31:30 10° N 22:36:28 29° NE 22:41:23 10° ESE
Cosmos 192 4.4 22:33:47 27° SSW 22:36:28 78° WNW 22:41:25 10° NNE
GEOS 3 Rocket 3.6 22:38:08 32° SSE 22:40:43 77° SW 22:46:06 10° NW
ATLAS CENTAUR R/B 3.3 22:40:46 24° SSW 22:44:04 71° SE 22:56:46 10° NE
Cosmos 1816 Rocket 4.4 22:47:50 32° S 22:50:50 79° E 22:56:59 10° N
USA 32 4.2 22:45:59 10° N 22:51:13 64° E 22:53:23 34° SSE
NOSS 2-3 (D) 4.4 22:51:08 30° ESE 22:51:14 30° ESE 22:55:15 10° NE
Aureole 3 4.3 22:47:55 10° N 22:51:39 41° ENE 22:53:19 30° SE
USA 267 3.4 22:47:08 10° ESE 22:53:40 78° NNE 23:00:13 10° NW
Okean 1-7 Rocket 4.0 22:54:15 33° SW 22:56:03 58° WNW 23:00:25 10° N
Cosmos 1812 Rocket 3.7 22:53:40 10° N 22:58:02 66° E 22:59:21 42° SE
BREEZE-M DEB (TANK) 3.4 22:56:45 10° W 23:00:18 69° N 23:11:03 10° E
Cosmos 2278 Rocket 3.6 22:56:00 10° NW 23:00:37 26° WSW 23:02:45 21° SW
Cosmos 2058 Rocket 4.3 22:58:56 10° NNW 23:02:54 32° W 23:04:24 26° SW
Cosmos 2297 3.6 22:57:52 10° NNW 23:03:33 89° ENE 23:06:10 34° SSE
Cosmos 2034 Rocket 4.2 23:01:00 10° NNW 23:07:04 62° W 23:10:01 31° SSW
NOSS 2-3 (C) 3.8 23:07:21 42° SE 23:07:54 45° ESE 23:12:23 10° NE
Thor Agena Rocket 3.9 23:02:48 10° NNE 23:07:56 53° E 23:09:46 36° SSE
SAR-Lupe-2 3.4 23:05:30 10° NNE 23:09:06 74° ESE 23:09:33 63° SSE
SJ 16-02 1.2 23:11:52 10° NNW 23:16:16 82° WSW 23:17:28 47° S
Cosmos 1174 4.4 23:14:18 31° SSW 23:17:06 87° ESE 23:21:47 10° NE
Meteor 1-11 4.1 23:19:57 36° SSW 23:22:24 88° W 23:28:01 10° N
Meteor 1-27 4.2 23:19:06 10° N 23:24:41 75° ENE 23:27:14 34° SSE
GP-B 3.0 23:20:14 10° N 23:24:42 89° W 23:26:01 46° S
Meteor 1-4 Rocket 3.5 23:23:16 10° NNW 23:26:23 31° W 23:26:36 31° WSW
Cosmos 1825 Rocket 3.9 23:25:14 40° SE 23:26:28 54° E 23:30:50 10° NNE
Cosmos 1943 Rocket 2.1 23:21:03 10° NNW 23:26:34 77° WSW 23:28:53 36° SSE
Nimbus 7 Rocket 4.5 23:20:35 10° NNE 23:26:39 81° WNW 23:29:47 31° SSW
Cosmos 1892 3.1 23:30:16 44° SE 23:30:58 51° E 23:34:46 10° NNE
MTI 4.3 23:29:20 10° N 23:32:16 43° WNW 23:32:27 42° W
Cosmos 1437 Rocket 4.4 23:32:12 10° NNE 23:35:31 26° ENE 23:37:15 19° ESE
ALOS 2 3.8 23:35:17 26° WSW 23:36:20 29° W 23:40:11 10° NW
Cosmos 1869 3.5 23:32:55 10° N 23:37:00 67° E 23:38:08 44° SE
Tsikada Rocket 4.3 23:34:13 28° SW 23:37:28 59° WNW 23:43:34 10° N
CZ-2D R/B 4.3 23:34:48 10° ENE 23:37:29 14° E 23:40:10 10° ESE
Cosmos 1943 4.1 23:36:45 28° SE 23:38:42 36° ESE 23:43:49 10° NE
SL-4 R/B 2.9 23:35:50 10° W 23:39:38 46° N 23:43:10 10° ENE
Cosmos 990 Rocket 4.1 23:35:05 10° NNW 23:40:18 74° ENE 23:42:50 30° SE
Lacrosse 4 Rocket 4.0 23:37:46 10° N 23:40:41 18° NE 23:43:34 10° E
USA 229 DEB 3.6 23:38:46 32° SSW 23:41:55 69° SE 23:48:43 10° NE
USA 229 3.6 23:38:53 32° SSW 23:42:02 69° SE 23:48:49 10° NE
EO 1 Del DPAF 3.6 23:38:26 10° NNE 23:42:03 46° E 23:42:38 42° SE
NOSS 8 (F) 4.0 23:43:55 86° SSE 23:43:56 86° SE 23:46:55 10° NE
Cosmos 1603 4.3 23:46:12 31° SSE 23:48:20 45° ESE 23:53:41 10° NE
Lacrosse 5 rocket 4.1 23:47:04 10° NW 23:49:33 17° N 23:52:01 10° NE
NOSS 3-1 (C) 3.4 23:46:44 24° SW 23:50:07 74° NW 23:56:31 10° NE
Cosmos 1953 Rocket 3.7 23:50:42 42° SSE 23:52:00 66° E 23:56:24 10° NNE
SL-16 R/B 4.1 23:47:25 10° ESE 23:52:44 31° ENE 23:58:01 10° N
Cosmos 1408 2.5 23:53:09 59° SSE 23:53:46 79° E 23:57:28 10° NNE
Cosmos 1825 2.8 23:54:28 38° SE 23:55:16 45° E 23:58:53 10° NNE
USA 306 4.3 23:56:43 23° SE 23:56:43 23° SE 23:59:45 10° E
